Wind_Speed
21 21 21 21 21 20 20 19 18 16 15 15 15 15 15 16 16 16 16 16 16 16 16 16 16 16 16 17 17 17 17 17 17 17 16 16 16 16 16 15 15 15 14 13
22 21 21 21 20 19 19 18 17 16 15 16 15 15 16 17 17 17 17 16 16 16 16 17 17 16 17 17 17 18 18 18 18 17 17 17 17 17 17 16 15 15 15 14
22 21 21 22 19 19 18 19 17 16 15 15 15 15 15 16 17 17 15 15 16 16 16 17 16 16 16 16 16 17 17 17 17 16 16 16 17 17 17 16 16 16 15 15
22 22 23 22 20 20 19 18 18 17 17 16 16 16 16 16 17 17 17 17 17 16 16 17 17 17 17 17 17 18 17 17 17 16 16 16 17 17 16 15 15 16 16 16
22 23 23 22 21 21 20 19 19 19 19 18 17 17 18 17 17 18 18 18 17 17 17 17 17 18 19 19 18 18 18 18 17 17 17 17 17 17 17 17 18 18 19 19
22 23 23 22 21 20 20 21 20 20 21 20 19 19 18 19 18 18 19 19 19 18 18 18 17 17 18 18 18 18 18 17 17 17 17 17 18 18 19 19 20 20 20 21
23 23 23 23 21 21 21 22 22 21 21 21 20 20 20 20 19 19 19 19 19 18 18 18 18 18 18 18 18 18 18 17 17 18 18 18 19 19 19 20 21 21 22 22
23 24 24 22 22 22 22 23 22 22 21 21 20 20 20 20 19 19 19 19 19 18 18 19 19 19 18 18 19 19 18 18 19 19 19 19 19 19 20 21 21 22 22 22
24 24 24 22 22 22 23 23 22 21 21 20 20 20 20 20 19 19 19 19 19 19 20 20 20 20 20 20 19 19 20 20 19 19 19 19 20 20 20 21 21 21 22 22
23 24 24 23 22 22 22 22 21 21 21 21 21 21 20 20 19 19 19 20 20 20 21 21 20 20 20 20 20 21 21 21 20 20 20 20 20 20 20 20 20 20 21 21
22 22 23 22 22 21 21 21 21 20 20 20 21 21 20 20 20 21 21 20 21 21 21 21 21 21 21 21 21 20 20 21 21 21 21 21 21 21 21 21 21 22 22 22
20 20 20 21 21 22 22 22 22 21 20 20 21 20 20 20 20 21 21 21 21 21 21 21 21 21 21 21 21 20 21 21 21 22 22 22 21 22 22 22 22 22 22 23
20 20 20 20 20 21 22 22 22 21 21 21 21 21 21 21 21 21 20 21 21 21 21 21 21 21 21 21 21 21 21 21 22 22 22 22 22 22 22 22 22 23 23 23
21 20 19 19 20 20 21 20 21 22 22 21 21 21 20 20 20 20 20 20 20 21 21 21 21 21 20 21 21 21 22 22 22 23 23 23 23 22 22 22 22 23 23 23
19 19 18 18 18 19 20 19 19 21 21 20 20 20 20 19 20 20 20 20 20 21 21 20 20 21 21 21 21 22 22 22 23 23 23 23 22 22 22 23 23 24 23 23
19 19 18 17 18 18 18 17 18 19 20 20 20 20 20 20 20 20 20 20 21 21 21 21 21 21 21 22 22 22 23 23 23 23 23 22 22 23 23 23 23 23 24 24
19 18 18 18 18 19 19 18 18 18 18 18 19 19 20 20 20 21 21 21 21 21 22 22 21 21 22 22 22 22 23 23 23 23 23 22 22 22 22 23 23 23 23 23
19 19 18 18 18 19 19 19 18 18 18 18 19 19 20 20 20 21 21 22 22 22 22 22 21 21 22 21 21 21 21 22 22 23 23 22 22 22 22 22 23 22 22 22
17 17 18 18 18 19 20 19 18 19 19 19 19 19 20 20 21 22 22 22 21 21 21 21 21 21 21 20 20 20 20 20 21 21 21 22 22 21 21 21 21 20 20 20
17 17 17 18 19 19 19 19 18 19 20 19 19 19 19 20 22 22 21 21 20 20 19 19 20 20 20 19 19 19 18 18 19 19 19 19 20 19 19 20 20 20 19 19
16 16 17 17 18 18 17 17 18 19 19 19 19 20 21 21 21 21 21 21 20 19 19 19 19 19 18 18 18 18 17 17 17 17 18 18 18 18 19 19 18 18 18 18
16 16 17 17 17 17 17 18 18 19 19 20 20 20 20 20 20 20 20 20 19 19 19 18 17 16 16 16 16 17 17 17 17 17 17 17 17 17 18 17 17 17 18 18
16 16 16 17 17 17 17 18 18 19 19 19 19 19 20 20 20 20 19 19 19 19 18 17 16 16 16 16 16 17 17 17 17 17 17 17 18 18 18 18 18 18 18 17
14 15 17 18 17 17 18 18 18 18 18 19 19 19 19 19 19 20 20 19 19 18 18 17 16 16 16 16 16 17 17 17 17 17 17 18 18 18 17 17 18 17 17 17
14 14 15 16 17 17 18 18 17 18 18 18 19 19 19 19 19 19 19 18 18 18 18 17 17 17 17 17 17 17 18 17 17 17 17 17 17 17 17 17 17 17 17 17
13 14 14 15 16 16 17 17 17 18 17 17 18 18 18 18 18 18 18 18 17 17 17 17 17 17 17 16 17 17 17 17 17 17 17 17 17 17 17 17 16 17 17 17
13 14 14 14 14 15 15 15 15 15 16 16 16 17 17 18 18 18 18 18 18 17 17 17 17 17 17 17 17 16 17 17 16 16 16 17 17 17 17 17 17 18 18 18
Wind_Direction
250 253 254 257 260 259 257 258 257 259 258 256 252 252 251 252 254 256 259 260 259 262 264 265 266 266 264 263 262 265 267 269 270 270 270 272 273 273 274 276 276 277 281 283
250 252 253 256 259 259 257 254 253 255 255 256 254 253 254 254 254 256 257 256 258 261 262 264 263 263 263 262 263 265 266 267 269 268 269 270 270 271 273 274 274 276 279 281
249 250 252 254 255 255 254 252 251 252 254 255 253 253 255 256 257 258 259 260 263 265 264 262 263 265 261 262 264 266 267 268 271 269 269 268 268 270 270 272 274 275 276 280
246 247 250 255 254 254 254 252 252 251 252 253 250 252 258 259 260 261 260 261 262 264 266 268 267 266 266 267 267 268 268 268 269 270 270 270 268 269 270 269 272 276 279 282
244 247 251 251 251 252 252 253 253 252 251 252 253 254 257 257 258 259 259 261 263 265 266 267 268 267 266 265 266 267 267 269 272 272 273 272 269 269 269 269 273 276 278 280
243 245 249 250 250 251 251 252 252 254 254 254 254 254 256 258 258 259 259 260 261 261 263 266 268 268 267 265 267 268 270 273 275 277 276 274 274 272 270 271 274 275 277 280
242 245 248 249 251 251 250 251 251 253 255 256 253 253 255 257 258 258 259 260 261 261 263 265 267 269 268 267 267 267 269 272 275 279 280 279 278 277 275 275 276 277 279 281
242 244 248 250 250 249 251 252 252 252 253 253 251 251 251 254 255 257 257 257 258 260 263 265 267 268 269 268 268 268 270 273 275 277 278 280 280 279 279 279 279 281 281 281
242 245 248 252 252 250 250 249 249 250 248 249 250 250 251 252 254 257 257 257 257 258 262 264 266 267 268 268 267 268 270 271 273 274 275 278 279 278 279 281 280 280 280 281
246 246 249 251 249 247 247 249 250 249 248 248 251 252 251 253 255 256 258 259 259 260 263 264 267 270 270 271 269 267 269 270 271 273 274 275 278 277 277 278 279 281 281 281
247 248 248 247 245 244 246 246 246 247 246 247 249 252 252 255 258 259 260 260 261 262 263 265 267 269 270 271 270 267 268 269 270 271 274 275 276 277 278 279 279 280 282 284
244 244 245 244 245 246 246 245 247 247 248 251 252 252 254 256 257 258 260 261 261 261 263 264 266 268 268 269 269 270 269 269 271 272 274 275 276 277 277 278 280 280 281 283
242 242 243 244 247 246 246 245 245 245 248 251 251 253 255 256 256 257 260 262 262 262 263 264 265 266 268 268 270 271 271 271 273 274 276 277 277 278 279 280 282 282 282 283
242 243 243 245 248 247 247 246 245 246 248 249 252 252 253 255 257 258 260 263 263 262 261 262 262 265 267 268 270 271 273 274 275 276 277 278 279 280 280 281 282 282 283 284
240 243 244 245 246 247 246 246 246 246 248 251 252 253 254 255 256 257 260 263 262 261 261 262 263 264 266 268 270 272 273 274 276 277 278 278 278 279 280 281 281 282 284 285
242 244 245 248 248 248 248 248 246 245 250 251 253 254 254 255 256 256 259 261 261 260 261 263 265 266 266 269 271 272 273 274 276 277 278 278 278 278 279 281 282 282 283 285
243 244 245 246 246 245 246 247 247 248 252 254 254 254 255 256 258 259 261 262 262 263 263 265 267 268 269 270 271 272 273 275 276 275 275 276 277 278 279 280 281 283 283 284
244 243 244 245 245 245 247 248 249 249 252 254 255 256 256 257 259 260 261 262 263 265 266 267 266 268 272 271 271 272 272 273 274 276 276 276 276 277 277 279 282 283 284 285
244 245 244 243 243 245 249 250 250 251 254 255 256 257 258 258 259 261 263 263 262 264 265 266 267 269 270 270 270 271 274 275 276 276 276 276 276 276 278 280 281 281 283 286
246 246 245 243 243 245 248 250 250 253 254 255 257 260 261 260 260 262 263 263 264 264 265 264 266 270 269 270 271 272 276 277 276 275 275 276 276 278 281 281 279 280 283 285
244 245 244 243 245 248 250 250 251 254 256 259 260 262 263 261 261 262 261 262 264 265 265 265 268 270 270 269 270 272 274 275 275 275 274 276 278 281 283 284 281 280 281 283
246 243 243 246 248 250 252 253 253 255 257 259 260 262 263 262 261 260 259 260 261 263 263 264 265 267 269 270 270 271 273 275 276 276 276 277 278 281 283 283 282 283 284 286
248 246 248 249 251 253 254 254 255 257 256 256 257 258 260 261 260 258 256 257 259 261 262 263 265 268 270 270 270 272 274 275 276 276 275 275 277 279 280 280 281 283 285 285
255 252 252 253 255 257 256 257 259 259 258 259 259 259 258 259 259 257 256 256 257 259 260 262 263 266 268 269 270 271 273 274 275 277 277 276 278 279 279 279 280 281 283 286
260 260 260 259 258 259 261 262 262 263 262 260 260 260 260 260 259 256 255 255 256 256 258 259 259 262 265 266 268 269 271 272 273 275 277 278 279 279 280 279 279 281 284 287
259 261 262 264 263 262 263 264 265 265 263 261 259 260 262 262 261 259 256 255 254 255 257 258 258 261 264 264 264 265 267 270 273 275 276 278 278 279 280 280 280 283 288 291
260 260 262 263 263 263 265 265 265 265 265 266 266 264 265 265 262 260 259 259 258 257 258 260 262 264 266 266 266 268 269 270 272 275 276 277 278 279 279 280 281 283 287 290
Height
5779 5780 5781 5782 5783 5784 5785 5786 5787 5787 5788 5788 5788 5789 5789 5790 5791 5791 5791 5791 5791 5791 5791 5791 5791 5791 5791 5792 5792 5792 5792 5792 5791 5791 5791 5790 5790 5790 5789 5789 5788 5787 5787 5785
5773 5774 5775 5777 5778 5779 5780 5781 5781 5782 5783 5783 5784 5785 5785 5786 5786 5787 5787 5788 5788 5787 5787 5787 5787 5787 5787 5787 5787 5788 5787 5787 5787 5787 5786 5786 5786 5786 5785 5785 5784 5783 5782 5781
5768 5769 5770 5771 5773 5774 5774 5775 5777 5778 5779 5779 5779 5780 5781 5782 5782 5783 5783 5783 5783 5783 5783 5783 5783 5783 5783 5783 5783 5783 5782 5782 5782 5782 5781 5781 5781 5781 5781 5780 5779 5779 5778 5777
5761 5763 5764 5768 5767 5768 5769 5770 5771 5772 5773 5774 5775 5776 5776 5777 5778 5778 5778 5779 5778 5778 5779 5778 5778 5778 5778 5778 5778 5778 5778 5778 5777 5777 5777 5777 5776 5776 5776 5776 5775 5774 5773 5772
5755 5756 5758 5760 5761 5762 5764 5765 5765 5767 5768 5769 5770 5771 5771 5772 5772 5773 5773 5773 5774 5774 5774 5774 5773 5773 5773 5773 5773 5773 5773 5773 5773 5772 5772 5772 5772 5771 5771 5771 5770 5769 5768 5767
5749 5750 5752 5754 5755 5756 5759 5759 5760 5761 5762 5763 5765 5766 5766 5766 5766 5767 5768 5768 5768 5769 5769 5769 5769 5769 5768 5768 5768 5768 5768 5768 5768 5767 5767 5767 5766 5766 5765 5765 5764 5763 5762 5761
5742 5744 5745 5747 5748 5751 5753 5753 5754 5754 5756 5757 5758 5760 5760 5760 5761 5761 5762 5762 5763 5763 5763 5763 5763 5763 5763 5763 5763 5763 5763 5763 5762 5762 5761 5761 5760 5760 5759 5759 5758 5757 5755 5754
5735 5737 5740 5740 5742 5744 5745 5746 5747 5748 5749 5750 5751 5752 5753 5754 5755 5756 5756 5757 5757 5758 5758 5758 5758 5758 5758 5758 5758 5758 5757 5757 5757 5756 5756 5755 5755 5754 5753 5752 5751 5750 5748 5747
5729 5731 5732 5733 5734 5736 5738 5739 5740 5741 5743 5744 5745 5746 5747 5748 5749 5750 5750 5751 5751 5752 5752 5752 5752 5752 5752 5752 5752 5752 5751 5751 5751 5750 5750 5750 5749 5748 5747 5746 5744 5743 5742 5741
5721 5722 5724 5726 5727 5729 5731 5732 5734 5735 5736 5738 5739 5740 5741 5743 5743 5744 5744 5745 5745 5746 5746 5746 5746 5746 5746 5746 5745 5745 5745 5745 5745 5744 5744 5743 5743 5742 5741 5740 5738 5737 5736 5734
5714 5716 5717 5719 5721 5723 5724 5726 5727 5729 5730 5732 5733 5734 5735 5736 5737 5738 5738 5738 5739 5739 5739 5740 5740 5740 5740 5739 5739 5739 5739 5739 5738 5738 5738 5737 5736 5735 5734 5733 5732 5731 5730 5728
5708 5710 5712 5713 5714 5716 5718 5719 5721 5722 5724 5725 5727 5728 5729 5730 5730 5731 5731 5732 5732 5732 5733 5733 5733 5733 5733 5733 5733 5733 5732 5732 5732 5731 5731 5730 5729 5729 5728 5727 5726 5725 5723 5722
5702 5704 5705 5707 5708 5710 5711 5713 5714 5716 5718 5719 5720 5721 5722 5723 5723 5724 5724 5725 5725 5725 5726 5726 5727 5727 5727 5727 5726 5726 5726 5726 5725 5725 5724 5723 5722 5722 5721 5720 5718 5717 5716 5715
5696 5698 5699 5701 5702 5704 5705 5706 5708 5710 5711 5712 5713 5714 5715 5716 5717 5717 5718 5718 5718 5719 5719 5720 5720 5720 5720 5720 5720 5720 5720 5719 5719 5718 5717 5716 5715 5714 5713 5712 5711 5710 5709 5707
5691 5692 5694 5695 5696 5697 5699 5700 5702 5703 5704 5705 5707 5708 5709 5709 5710 5711 5711 5712 5712 5712 5713 5713 5714 5714 5714 5714 5714 5713 5713 5712 5711 5711 5710 5709 5708 5707 5706 5705 5704 5702 5701 5700
5685 5687 5688 5689 5690 5691 5693 5694 5695 5697 5698 5699 5700 5701 5702 5703 5704 5705 5705 5705 5706 5706 5706 5707 5707 5707 5707 5707 5707 5706 5706 5705 5704 5703 5702 5702 5701 5700 5699 5698 5696 5695 5694 5692
5679 5681 5682 5684 5685 5686 5687 5688 5690 5691 5692 5693 5694 5695 5695 5696 5697 5698 5698 5699 5699 5699 5700 5700 5700 5700 5700 5700 5699 5699 5698 5698 5697 5696 5695 5695 5694 5693 5692 5690 5689 5688 5686 5685
5674 5675 5677 5678 5679 5680 5681 5683 5684 5685 5686 5687 5687 5688 5689 5690 5691 5691 5692 5692 5692 5693 5693 5693 5693 5693 5693 5693 5692 5691 5691 5690 5689 5689 5688 5687 5686 5685 5684 5683 5682 5680 5679 5677
5668 5670 5671 5672 5674 5675 5676 5677 5678 5679 5680 5680 5681 5682 5682 5682 5683 5684 5685 5685 5685 5686 5686 5686 5686 5686 5686 5686 5685 5684 5683 5683 5682 5682 5681 5680 5679 5678 5677 5676 5675 5673 5672 5671
5663 5664 5666 5667 5668 5670 5671 5671 5672 5673 5674 5674 5675 5675 5675 5675 5676 5677 5677 5678 5678 5679 5679 5679 5679 5679 5679 5679 5678 5678 5677 5676 5676 5675 5674 5673 5672 5671 5670 5669 5667 5666 5665 5664
5658 5659 5661 5662 5663 5664 5665 5666 5667 5667 5667 5668 5668 5669 5669 5669 5669 5669 5670 5671 5672 5672 5672 5672 5672 5672 5672 5672 5672 5671 5671 5670 5669 5669 5668 5667 5666 5665 5663 5662 5661 5660 5659 5657
5654 5654 5656 5657 5658 5659 5659 5660 5660 5661 5661 5662 5662 5662 5662 5662 5662 5663 5663 5664 5665 5665 5665 5666 5666 5666 5666 5666 5665 5665 5665 5664 5663 5663 5662 5661 5660 5659 5658 5656 5655 5654 5652 5651
5649 5650 5651 5652 5652 5653 5654 5654 5654 5655 5655 5656 5656 5656 5656 5656 5656 5657 5657 5658 5659 5659 5659 5660 5660 5660 5660 5660 5659 5659 5659 5658 5657 5657 5656 5655 5654 5653 5652 5650 5649 5648 5646 5645
5644 5645 5646 5646 5647 5647 5648 5648 5648 5649 5649 5649 5649 5650 5650 5650 5650 5650 5651 5652 5652 5652 5653 5653 5654 5654 5654 5654 5654 5653 5653 5652 5651 5651 5650 5649 5648 5646 5645 5644 5643 5642 5641 5639
5640 5640 5641 5641 5642 5642 5642 5642 5642 5643 5643 5643 5643 5643 5644 5644 5644 5644 5644 5645 5645 5646 5647 5647 5647 5648 5648 5648 5647 5647 5647 5646 5646 5645 5644 5643 5642 5641 5640 5638 5637 5636 5635 5634
5635 5636 5636 5636 5636 5636 5636 5636 5636 5637 5637 5637 5637 5637 5637 5637 5637 5638 5638 5639 5639 5640 5640 5641 5641 5641 5641 5641 5641 5641 5640 5640 5639 5639 5638 5637 5636 5635 5634 5633 5632 5631 5630 5628
5631 5631 5631 5631 5631 5631 5631 5631 5631 5631 5631 5631 5631 5631 5631 5631 5631 5631 5632 5633 5633 5634 5634 5635 5635 5635 5635 5635 5635 5635 5634 5634 5633 5633 5632 5631 5630 5629 5628 5627 5626 5625 5624 5623